Voltar ao catálogo

DELTA 2 R/B

AtivoHEO
NORAD 36120·ROCKET BODY·🇺🇸 United States

Lançado Dec 14, 2009 de Vandenberg Space Force Base

Loading…

Próximas Passagens (próximas 24 horas)

TLE

AtualizadoSource: Space-Track

Época: Sep 13, 2026, 15:08 UTC

1 36120U 09071B   26256.63058497  .00000019  00000-0  00000-0 0  9992
2 36120  97.4996 126.9030 3450404  59.7451 330.0659  5.87187352359076

Acompanhe DELTA 2 R/B em tempo real com AllMySat

Download on the App Store